星链-3557 (STARLINK-3557 )

导读 | 豆包AI

STARLINK-3557是美国SpaceX公司星链(Starlink)星座中的一员,于2022年2月25日发射升空,属于Starlink V1.0卫星平台。星链项目旨在构建全球低轨卫星互联网,为全球提供高速低延迟网络服务。该卫星运行在近地轨道,采用霍尔推进系统,具备自主轨道调整和末期离轨销毁能力,服务周期约5-7年,持续为全球互联网覆盖提供支持。

Basic Information
目录编号:
51802
目录名称:
STARLINK-3557
国际标识:
2022-017AL
轨道中心:
EARTH
卫星名称:
星链-3557
卫星全名:
星链-3557 (STARLINK-3557 )
卫星状态:
已陨落 最后检测时间 2025-12-25
发射日期:
2022-02-25 UTC
国别 :
美国 (US)
星等 :
--
Orbit Information
数据来源 国际轨道数据
星历时间: 2025-12-25T10:30:27+0800
轨道信息已过期79天
半长轴: 6529.009km
偏心率: 0.0004404
轨道倾角: 53.175°
近地点辐角 284.134°
升交点赤经 250.297°
平近点角 75.922°
近地点: 147.996km
远地点: 153.748km
周期: 87.505分钟
每日圈数: 16.456288
Detailed Information
固有亮度:
5
最大亮度:
2.5
卫星平台:
Starlink v1.5
覆盖范围:
全球
运营商:
太空探索技术公司
运营商所在国:
美国
制造商(研发单位):
太空探索技术公司
制造商所在国:
美国
使用方式:
暂无
Satellite Introduction
星链(Starlink)计划是由太空探索技术公司(SpaceX)提出的一个巨型低轨卫星互联网星座项目,计划在2019年至2024年间在太空搭建由约1.2万颗卫星组成的“星链”网络,其中1584颗将部署在地球上空550千米处的近地轨道,并从2020年开始工作。该卫星仍在工作。